Home > Weather > Quesnel > Past weeks

Flag for Canada Past Weather in Quesnel, British Columbia, Canada — Yesterday and Last 2 Weeks

Now
66 °F

Overcast.


Feels Like: 66 °F
Forecast: 57 / 75 °F
Wind: 3 mph from North

Location: Quesnel Airport

Current Time: Jun 30, 2016 at 11:22:53 PM

Latest Report: Jun 30, 2016 at 10:00 PM


Visibility: 9 mi

Pressure: 29.95 "Hg

Humidity: 68%

Dew Point: 55 °F

Location of QuesnelLocation

Past Weather in Quesnel — Graph

°F

Quesnel Temperature Yesterday

Maximum temperature yesterday: 84 °F (at 3:00 PM)
Minimum temperature yesterday: 59 °F (at 5:00 AM)
Average temperature yesterday: 72 °F

High & Low Weather Summary for the Past Weeks

 TemperatureHumidityPressure
High84 °F (Jun 28, 3:00 PM)100% (Jun 17, 12:00 AM)30.31 "Hg (Jun 17, 12:00 AM)
Low41 °F (Jun 18, 5:00 AM)23% (Jun 27, 7:00 PM)29.87 "Hg (Jun 23, 7:00 PM)
Average61 °F68%30.07 "Hg
* Reported Jun 15 10:00 PM — Jun 30 10:00 PM, Quesnel, Weather by CustomWeather, © 2016

Note: Actual official high and low records may vary slightly from our data, if they occured in-between our weather recording intervals... More about our weather records

Advertising

Quesnel Weather History for the Previous 24 Hours

Scroll right to see more
 ConditionsComfort  
Time TempWeatherWind HumidityBarometerVisibility
10:00 PM
Thu, Jun 30
66 °FOvercast.3 mph68%29.95 "Hg9 mi
9:00 PM70 °FMostly cloudy.5 mph57%29.94 "Hg9 mi
8:00 PM75 °FPartly sunny.5 mph47%29.94 "Hg9 mi
7:00 PM77 °FPassing clouds.6 mph36%29.95 "Hg9 mi
6:00 PM77 °FSunny.3 mph39%29.96 "Hg9 mi
5:00 PM77 °FScattered clouds.2 mph36%29.98 "Hg6 mi
4:00 PM77 °FSunny.No wind36%30.00 "Hg9 mi
3:00 PM77 °FSunny.3 mph39%30.02 "Hg9 mi
2:00 PM75 °FSunny.No wind41%30.03 "Hg9 mi
1:00 PM73 °FSunny.5 mph47%30.05 "Hg9 mi
12:00 PM70 °FSunny.2 mph50%30.08 "Hg9 mi
11:00 AM68 °FSunny.No wind56%30.09 "Hg9 mi
10:00 AM63 °FSunny.No wind77%30.10 "Hg9 mi
9:00 AM59 °FPartly sunny.2 mph94%30.11 "Hg9 mi
8:49 AM59 °FMore clouds than sun.No wind94%30.10 "Hg9 mi
8:00 AM59 °FMostly cloudy.5 mph94%30.10 "Hg9 mi
7:00 AM57 °FFog.2 mph100%30.09 "Hg0 mi
6:00 AM55 °FFog.2 mph100%30.08 "Hg0 mi
5:00 AM55 °FFog.2 mph100%30.06 "Hg0 mi
4:00 AM57 °FPassing clouds.3 mph94%30.05 "Hg9 mi
3:00 AM57 °FClear.2 mph100%30.03 "Hg9 mi
2:00 AM61 °FStrong thunderstorms. Fog.7 mph94%30.04 "Hg3 mi
1:57 AM61 °FStrong thunderstorms. Fog.7 mph88%30.05 "Hg3 mi
1:04 AM61 °FLight rain. Overcast.2 mph88%30.02 "Hg9 mi
1:00 AM61 °FOvercast.2 mph88%30.02 "Hg9 mi
12:00 AM61 °FMostly cloudy.9 mph83%30.02 "Hg9 mi
11:47 PM
Wed, Jun 29
61 °FMostly cloudy.12 mph77%30.02 "Hg9 mi
11:00 PM70 °FThunderstorms. Mostly cloudy.14 mph50%30.01 "Hg9 mi
Weather by CustomWeather, © 2016

See weather overviewHow to use our weather pages